#timestamp,LO_Frequency,Hit,StdDev 
1540022415.5,286046998.9,N
1540022435.4,286046999.5,N
1540022455.2,286046999.0,N
1540022475.0,286046999.4,N
1540022475.9,286046999.4,N
1540022495.8,286046999.5,N
1540022515.6,286046996.5,Y
1540022535.5,286046999.3,P
1540022555.3,286046998.9,P
1540022575.1,286046998.8,P
1540022595.9,286046998.5,Y
1540022615.7,286047001.2,P
1540022635.6,286047001.0,N
1540022655.4,286047000.5,N
1540022675.2,286047000.4,N
1540022695.1,286047001.0,N
1540022696.0,286047001.0,N
1540022715.8,286046999.7,N
1540022735.6,286047000.0,N
1540022755.5,286047000.9,N
1540022775.3,286047000.9,N
1540022795.2,286046998.1,N
1540022815.9,286046998.4,N
1540022835.7,286047000.0,N
1540022855.6,286047000.4,N
1540022875.4,286046998.4,N
1540022895.2,286046998.5,N
1540022915.1,286046998.8,N
1540022916.0,286046998.8,N
1540022935.8,286046996.6,Y
1540022955.7,286046999.0,P
1540022975.5,286046998.8,N
1540022995.3,286046999.4,N
1540023015.2,286046999.0,N
1540023035.0,286046998.6,Y
1540023035.9,286046998.6,P
1540023055.8,286047000.5,N
1540023075.6,286046998.2,N
1540023095.4,286047001.0,N
1540023115.3,286047000.4,N
1540023135.1,286047001.1,N
1540023155.8,286046998.7,N
1540023175.7,286046999.4,N
1540023195.5,286046998.2,N
1540023215.4,286046999.6,N
1540023235.2,286046997.2,N
1540023255.0,286046997.0,N
1540023255.9,286046997.0,N
1540023275.8,286046999.1,N
1540023295.6,286047000.8,N
1540023315.5,286047000.7,N
1540023335.3,286046998.2,N
1540023355.1,286046998.2,N
1540023375.9,286046998.4,N
1540023395.7,286046999.1,N
1540023415.5,286046998.8,N
1540023435.4,286046999.2,N
1540023455.2,286046996.6,N
1540023475.1,286046999.2,N
1540023476.0,286046999.2,N
1540023495.8,286046999.4,N
1540023515.6,286046997.1,N
1540023535.8,286046997.2,N
1540023555.6,286046999.6,N
1540023575.5,286046999.4,N
1540023595.3,286046999.1,N
1540023615.2,286046999.4,N
1540023635.8,286046997.2,N
1540023655.6,286046997.8,N
1540023675.4,286046997.3,N
1540023695.3,286047009.0,Y
1540023715.1,286047016.0,P
1540023735.9,286047014.8,N
1540023755.7,286047011.9,N
1540023775.5,286047007.7,N
1540023795.4,286047007.0,N
1540023815.2,286047007.6,N
1540023835.0,286047005.1,N
1540023835.9,286047005.1,N
1540023855.8,286047003.6,N
1540023905.7,286047002.6,E
1540023915.6,286046999.9,N
1540023935.4,286046998.7,P
1540023955.3,286046998.4,N
1540023975.1,286046999.4,N
1540023976.0,286046999.4,N
1540023995.8,286046998.8,N
1540024015.7,286046996.6,Y
1540024035.5,286046996.8,P
1540024055.3,286046997.7,N
1540024075.2,286046994.9,P
1540024095.0,286046998.0,N
1540024095.9,286046998.0,N
1540024115.8,286046996.9,N
1540024135.6,286046997.1,N
1540024155.4,286046994.9,Y
1540024175.3,286047001.2,P
1540024195.1,286046998.3,N
1540024215.8,286046999.1,N
1540024235.7,286046998.8,N
1540024255.5,286047000.8,N
1540024275.4,286047000.4,N
1540024295.2,286047000.3,N
1540024315.0,286047000.6,N
1540024315.9,286047000.6,N
1540024335.8,286046998.3,N
1540024355.6,286046999.4,N
1540024375.4,286046998.9,N
1540024395.3,286046998.2,N
1540024415.1,286046999.3,N
1540024435.9,286046998.3,N
1540024455.7,286046998.2,N
1540024475.5,286047000.7,N
1540024495.4,286047000.0,N
1540024515.2,286047001.1,N
1540024535.0,286047000.2,N
1540024535.9,286047000.2,N
1540024555.8,286047000.7,N
1540024575.6,286046999.9,N
1540024595.5,286047000.1,N
1540024615.3,286046999.8,N
1540024635.1,286046999.7,N
1540024655.9,286047001.1,N
1540024675.7,286047000.4,N
1540024695.5,286047000.7,N
1540024715.4,286047002.4,N
1540024735.3,286047000.6,N
1540024755.1,286047000.6,N
1540024775.8,286046999.9,N
1540024795.7,286047000.0,N
1540024815.5,286047001.2,N
1540024835.3,286047000.8,N
1540024855.2,286047000.0,N
1540024875.0,286047000.9,N
1540024875.9,286047000.9,N
1540024895.8,286047000.6,N
1540024915.6,286046999.9,N
1540024935.4,286047000.4,N
1540024955.3,286047000.5,N
1540024975.1,286047002.8,Y
1540024995.9,286047000.1,P
1540025015.7,286047000.6,P
1540025035.5,286047001.0,P
1540025055.4,286046998.7,Y
1540025075.2,286046998.9,P
1540025095.0,286046998.3,N
1540025095.9,286046998.3,N
1540025115.8,286046997.0,Y
1540025135.6,286047000.4,P
1540025155.5,286047000.2,N
1540025175.3,286047001.0,N
1540025195.1,286047000.7,N
1540025215.9,286047001.1,N
1540025235.7,286047001.0,N
1540025255.5,286047000.0,N
1540025275.4,286047002.8,Y
1540025295.2,286047001.6,P
1540025315.1,286047002.4,P
1540025316.0,286047002.4,N
1540025335.8,286047002.0,N
1540025355.6,286046999.7,N
1540025375.5,286046999.9,N
1540025395.3,286046998.1,N
1540025415.2,286047000.6,N
1540025435.9,286047002.3,N
1540025455.7,286047002.3,N
1540025475.6,286047001.6,N
1540025495.4,286047002.5,N
1540025515.2,286047000.1,N
1540025535.1,286047000.2,N
1540025536.0,286047000.2,N
1540025555.8,286047002.2,N
1540025575.7,286047004.0,Y
1540025595.5,286047001.9,P
1540025615.3,286047002.2,P
1540025635.2,286047001.6,P
1540025655.0,286047001.6,Y
1540025655.9,286047001.6,P
1540025675.7,286047011.9,P
1540025695.6,286047000.4,N
1540025715.4,286046999.9,N
1540025735.3,286047000.0,N
1540025755.1,286047000.1,N
1540025756.0,286047000.1,N
1540025775.8,286047000.2,N
1540025795.7,286046999.8,N
1540025815.5,286046999.9,N
1540025835.3,286047000.8,N
1540025855.2,286046999.7,N
1540025875.0,286047000.0,N
1540025875.9,286047000.0,N
1540025895.8,286047002.4,N
1540025915.6,286047002.5,N
1540025935.4,286046999.7,N
1540025955.3,286047002.1,N
1540025975.1,286047002.7,N
1540025995.9,286047002.4,N
